Akron, CO

11:04 AM MST on February 11, 2016 (GMT -0700)
Akron-Washington County

Weather History for KAKO - December, 2013

Change the Weather History Date:

Sunday, December 1, 2013

  Actual Average Record
Temperature  
Mean Temperature 40 °F 31 °F  
Max Temperature 55 °F 42 °F 70 °F (1998)
Min Temperature 24 °F 19 °F -14 °F (1985)
Degree Days  
Heating Degree Days 25    
Month to date heating degree days 25  
Cooling Degree Days 0    
Month to date cooling degree days 0  
Moisture  
Dew Point 20 °F    
Average Humidity 53    
Maximum Humidity 81    
Minimum Humidity 24    
Precipitation  
Precipitation 0.00 in 0.02 in 0.14 in (1950)
Month to date precipitation 0.00 0.02  
Year to date precipitation 16.96 16.36  
Sea Level Pressure  
Sea Level Pressure 30.01 in    
Wind  
Wind Speed 9 mph (WSW)    
Max Wind Speed 18 mph    
Max Gust Speed 26 mph    
Visibility 10 miles    
Events      
T = Trace of Precipitation, MM = Missing Value Source: NWS Daily Summary

Daily Weather History Graph

Daily Weather History Graph

Search for Another Location

Airport or City:

Trip Planner

Search our weather history database for the weather conditions in past years. The results will help you decide how hot, cold, wet, or windy it might be!

Date:

Astronomy

Dec. 01, 2013 Rise Set
Actual Time 6:56 AM MST 4:27 PM MST
Civil Twilight 6:26 AM MST 4:57 PM MST
Nautical Twilight 5:52 AM MST 5:31 PM MST
Astronomical Twilight 5:19 AM MST 6:04 PM MST
Moon 5:16 AM MST (12/1) 3:39 PM MST (12/1)
Length of Visible Light 10h 31m
Length of Day
9h 31m
Waning Crescent, 2% of the Moon is Illuminated
Dec 1
Waning Crescent
Dec 2
New
Dec 9
First Quarter
Dec 17
Full
Dec 25
Last Quarter

Hourly Weather History & Observations

Time (MST) Temp. Windchill Dew Point Humidity Pressure Visibility Wind Dir Wind Speed Gust Speed Precip Events Conditions
12:53 AM 37.0 °F 32.4 °F 19.9 °F 50% 30.09 in 10.0 mi South 5.8 mph - N/A   Clear
1:53 AM 36.0 °F 31.1 °F 21.0 °F 55% 30.08 in 10.0 mi SSE 5.8 mph - N/A   Clear
2:53 AM 27.0 °F 18.0 °F 21.0 °F 78% 30.12 in 10.0 mi West 9.2 mph - N/A   Clear
3:53 AM 26.1 °F 17.6 °F 19.0 °F 75% 30.11 in 10.0 mi West 8.1 mph - N/A   Clear
4:53 AM 25.0 °F 14.2 °F 19.0 °F 78% 30.14 in 10.0 mi West 11.5 mph - N/A   Clear
5:53 AM 25.0 °F 13.6 °F 19.0 °F 78% 30.16 in 10.0 mi West 12.7 mph - N/A   Clear
6:53 AM 27.0 °F 15.2 °F 19.9 °F 75% 30.14 in 10.0 mi West 15.0 mph - N/A   Mostly Cloudy
7:53 AM 33.1 °F - 24.1 °F 70% 30.14 in 10.0 mi Calm Calm - N/A   Overcast
8:53 AM 32.0 °F 23.6 °F 24.1 °F 73% 30.15 in 10.0 mi West 10.4 mph - N/A   Overcast
9:53 AM 42.1 °F 37.1 °F 26.1 °F 53% 30.14 in 10.0 mi West 8.1 mph - N/A   Overcast
10:53 AM 48.0 °F - 24.1 °F 39% 30.08 in 10.0 mi WSW 8.1 mph - N/A   Clear
11:53 AM 50.0 °F - 23.0 °F 35% 30.02 in 10.0 mi WSW 13.8 mph - N/A   Clear
12:53 PM 53.1 °F - 21.9 °F 30% 29.97 in 10.0 mi West 16.1 mph - N/A   Clear
1:53 PM 55.0 °F - 19.9 °F 25% 29.93 in 10.0 mi WNW 13.8 mph - N/A   Clear
2:53 PM 54.0 °F - 19.0 °F 25% 29.96 in 10.0 mi West 13.8 mph - N/A   Clear
3:53 PM 48.9 °F - 19.9 °F 32% 29.96 in 10.0 mi West 6.9 mph - N/A   Clear
4:53 PM 42.1 °F 37.7 °F 19.9 °F 41% 29.97 in 10.0 mi SSW 6.9 mph - N/A   Partly Cloudy
5:53 PM 42.1 °F 38.4 °F 19.0 °F 40% 29.94 in 10.0 mi South 5.8 mph - N/A   Partly Cloudy
6:53 PM 42.1 °F 37.7 °F 19.0 °F 40% 29.91 in 10.0 mi South 6.9 mph - N/A   Clear
7:53 PM 41.0 °F 34.7 °F 19.0 °F 41% 29.88 in 10.0 mi SSW 10.4 mph - N/A   Partly Cloudy
8:53 PM 42.1 °F 36.6 °F 18.0 °F 38% 29.87 in 10.0 mi SSW 9.2 mph - N/A   Partly Cloudy
9:53 PM 42.1 °F 37.1 °F 17.1 °F 37% 29.83 in 10.0 mi SSW 8.1 mph - N/A   Mostly Cloudy
10:53 PM 39.0 °F 32.3 °F 18.0 °F 43% 29.82 in 10.0 mi WSW 10.4 mph - N/A   Clear
11:53 PM 37.9 °F 31.5 °F 18.0 °F 45% 29.81 in 10.0 mi West 9.2 mph - N/A   Clear